Regional Weather Roundup
Issued by NWS

Home | Current Version | Previous Version | Graphics & Text | Print | Product List | Glossary On
Versions: 1 2 3 4 5 6 7 8 9 10 11 12 13 14 15 16 17 18 19 20 21 22 23 24 25 26 27 28 29 30 31 32 33 34 35 36 37 38 39 40 41 42 43 44 45 46 47 48 49 50
000
ASUS43 KMPX 241501
RWRMN
WEATHER ROUNDUP FOR MINNESOTA
NATIONAL WEATHER SERVICE TWIN CITIES/CHANHASSEN MN
1000 AM CDT SAT SEP 24 2016


NOTE: "FAIR" INDICATES FEW OR NO CLOUDS BELOW 12,000 FEET WITH NO
SIGNIFICANT WEATHER AND/OR OBSTRUCTIONS TO VISIBILITY. N/A MEANS
CURRENT SKY AND/OR WEATHER CONDITIONS ARE NOT AVAILABLE.

MNZ060>063-068>070-241600-
   Twin Cities Metro

CITY           SKY/WX    TMP DP  RH WIND       PRES   REMARKS
TWIN CITIES    CLOUDY    64  61  90 SE14      30.09F FOG
ST PAUL        CLOUDY    64  61  90 SE12      30.10F
CRYSTAL        CLOUDY    64  59  83 SE10      30.07F
BLAINE         CLOUDY    64  64 100 SE12G17   30.09F FOG
LAKEVILLE      CLOUDY    63  63 100 SE9       30.09F
EDEN PRAIRIE   CLOUDY    65  62  90 SE15      30.07F FOG
LAKEVILLE      CLOUDY    63  63 100 SE9       30.09F
SOUTH ST PAUL  CLOUDY    64  62  93 SE6       30.10F
LAKE ELMO      CLOUDY    63  61  94 SE5       30.12S FOG
$$
MNZ001>005-007-008-013>017-022>024-027-028-241600-
   Northwest Minnesota

CITY           SKY/WX    TMP DP  RH WIND       PRES   REMARKS
BEMIDJI        CLOUDY    60  60  98 SE14      30.01F FOG
HALLOCK        CLOUDY    64  63  94 SE12      29.89F
ROSEAU         CLOUDY    59  54  82 E8        29.96S HAZE
WARROAD        CLOUDY    57  54  88 E9        29.98F FOG
CROOKSTON      CLOUDY    68  64  88 S17       29.89F
FOSSTON        MOSUNNY   66  61  82 SE16      29.94F
DETROIT LAKES  CLOUDY    64  63  94 SE15      29.97S FOG
MOORHEAD       CLOUDY    70  64  83 SE21      29.90S
PARK RAPIDS    CLOUDY    63  60  90 SE15G22   30.01F FOG
MAHNOMEN       CLOUDY    65  62  87 SE18G28   29.93F
$$
MNZ006-009>011-018-025>026-241600-
   North Central Minnesota

CITY           SKY/WX    TMP DP  RH WIND       PRES   REMARKS
BAUDETTE       CLOUDY    57  56  96 SE10      30.01F FOG
FLAG ISLAND    CLOUDY    57  55  94 SE6       30.00F FOG
INTL FALLS     CLOUDY    58  55  90 SE8       30.08F
WASKISH        CLOUDY    63  61  94 SE13G18   30.01F
BIG FORK       CLOUDY    61  55  82 S10G16    30.08F
GRAND RAPIDS   CLOUDY    58  55  90 SE9G18    30.11S
ORR            CLOUDY    59  52  77 SE6       30.09S
COOK           CLOUDY    59  54  82 SE10G16   30.13S
WALKER         CLOUDY    60  60  97 SE8       30.03F FOG
$$
MNZ012-019>021-037-241600-
   Northeast Minnesota

CITY           SKY/WX    TMP DP  RH WIND       PRES   REMARKS
DULUTH         CLOUDY    55  55 100 E10       30.15F FOG
ELY            CLOUDY    57  52  82 SE10G18   30.16S
HIBBING        CLOUDY    57  53  86 SE13      30.13S
EVELETH        CLOUDY    58  51  78 SE8       30.15F
DULUTH HARBOR  CLOUDY    57  55  94 NE8       30.17S
TWO HARBORS    CLOUDY    63  55  77 E8        30.17S
SILVER BAY     CLOUDY    61  54  77 E7        30.17F
GRAND MARAIS     N/A     61  54  77 E7        30.22F
G MARAIS ARPRT MOSUNNY   55  48  76 E8        30.24F
$$
MNZ029>031-032-039>041-046>048-054>057-064-241600-
   West Central Minnesota

CITY           SKY/WX    TMP DP  RH WIND       PRES   REMARKS
FERGUS FALLS   CLOUDY    70  66  88 SE18G26   29.95S
WHEATON        PTSUNNY   72  68  88 SE20G30   29.92F
MORRIS         MOSUNNY   70  66  88 SE17G24   29.95S FOG
ALEXANDRIA     CLOUDY    65  65 100 SE18G25   30.02R FOG
ELBOW LAKE     CLOUDY    67  65  92 E18G30    29.96F
GLENWOOD       CLOUDY    64  64 100 SE13G18   30.02R FOG
APPLETON       PTSUNNY   72  64  78 SE13G24   29.94F
BENSON         CLOUDY    70  63  78 S15G22    29.98S HAZE
ORTONVILLE     PTSUNNY   70  64  83 SE16G22   29.91F
MADISON          N/A     73  70  88 SE16G22   29.93F
WILLMAR        CLOUDY    68  66  94 SE14G21   30.02S FOG
$$
MNZ033>034-036-042>043-049>051-058-059-241600-
   Central Minnesota

CITY           SKY/WX    TMP DP  RH WIND       PRES   REMARKS
ST CLOUD       CLOUDY    63  63 100 SE9       30.06S FOG
SAUK CENTRE    CLOUDY    64  64  98 SE12G21   30.03F FOG
PAYNESVILLE    CLOUDY    65  65 100 SE9G21    30.04S FOG
AITKIN         CLOUDY    63  57  82 SE8       30.08F HAZE
PINE RIVER     CLOUDY    61  61 100 SE14      30.08F FOG
BRAINERD       CLOUDY    61  60  97 SE8       30.07F FOG
STAPLES        CLOUDY    61  61 100 SE9       30.03S FOG
LONG PRAIRIE   CLOUDY    63  61  94 E12       30.03F FOG
LITTLE FALLS   CLOUDY    61  59  94 SE8       30.05F FOG
LITCHFIELD     CLOUDY    66  66 100 SE14      30.04S FOG
BUFFALO        CLOUDY    64  61  92 E13       30.07S FOG
MAPLE LAKE     CLOUDY    64  64  97 SE8       30.07S FOG
HUTCHINSON     CLOUDY    66  65  97 SE12      30.06R FOG
$$
MNZ037-044-045-052-053-241600-
   East Central Minnesota

CITY           SKY/WX    TMP DP  RH WIND       PRES   REMARKS
PRINCETON      CLOUDY    63  61  94 E6        30.09S FOG
MORA           CLOUDY    55  55 100 SE6       30.13S FOG
CAMBRIDGE      CLOUDY    63  59  88 E8        30.09S FOG
MOOSE LAKE     CLOUDY    57  55  94 CALM      30.12F FOG
HINCKLEY       CLOUDY    59  59 100 SE7       30.13S FOG
CLOQUET        CLOUDY    55  54  94 E7        30.14F FOG
MCGREGOR       CLOUDY    59  57  94 SE9       30.12S
$$
MNZ071>073-080-081-089-090-097-098-241600-
   Southwest Minnesota

CITY           SKY/WX    TMP DP  RH WIND       PRES   REMARKS
MONTEVIDEO     PTSUNNY   72  66  83 S16       29.99S
GRANITE FALLS  PTSUNNY   72  66  83 SE17G23   29.99S
CANBY          CLOUDY    71  68  90 E14       29.94F FOG
MARSHALL       CLOUDY    70  66  87 SE16G23   29.96F
REDWOOD FALLS  CLOUDY    70  64  81 SE20G28   30.00R
OLIVIA         CLOUDY    68  63  83 SE17G24   30.01S FOG
PIPESTONE      MOSUNNY   72  66  83 SE14G24   29.95F
WINDOM         CLOUDY    70  64  83 SE15G23   30.01F
WORTHINGTON    CLOUDY    71  66  84 SE15G23   30.00F
JACKSON        PTSUNNY   72  63  73 SE16      30.02F
TRACY          LGT RAIN  68  67  96 S10       29.99S
$$
MNZ065>067-074>077-082>085-091>093-241600-
   South Central Minnesota

CITY           SKY/WX    TMP DP  RH WIND       PRES   REMARKS
MANKATO        CLOUDY    66  63  90 SE17      30.06F
ST JAMES       CLOUDY    68  64  88 SE14      30.05S
FAIRMONT       CLOUDY    69  65  86 SE14G22   30.05S
GLENCOE        CLOUDY    67  66  95 SE13      30.06R
FARIBAULT      CLOUDY    66  63  88 SE13      30.09F
OWATONNA       CLOUDY    66  63  88 SE14G22   30.09F FOG
WASECA         CLOUDY    64  61  88 SE14      30.10R FOG
ALBERT LEA     CLOUDY    64  64 100 SE13      30.10S FOG
$$
MNZ078>079-086>088-094>096-241600-
   Southeast Minnesota

CITY           SKY/WX    TMP DP  RH WIND       PRES   REMARKS
ROCHESTER      CLOUDY    64  63  96 SE14G21   30.13F FOG
RED WING       CLOUDY    64  61  88 SE14      30.11S FOG
STANTON        CLOUDY    65  62  87 SE9       30.10R
DODGE CENTER   CLOUDY    64  63  94 SE13      30.12S FOG
WINONA         CLOUDY    63  61  94 SE7       30.16S FOG
AUSTIN         CLOUDY    64  63  94 SE8       30.12S FOG
PRESTON        FOG       63  61  95 SE9       30.15S VSB 3/4
$$
ABBREVIATIONS USED IN REMARKS
   TC - TEMPERATURES IN CELSIUS
  WCI - WIND CHILL INDEX
   HX - HEAT INDEX
  VSB - VISIBILITY
$$




USA.gov is the U.S. government's official web portal to all federal, state and local government web resources and services.